• In Uzbekistan
  • List of Countries
  • For 7 days
  • Water Temperature
  • Satellite Maps
  • Weather Map
  • Weather Widgets
  • user-avatar
    Login

    Hourly Weather Ganja

    Today, 25 February, Saturday

    Time Temperature Precipitation Wind Pressure Humidity
    00:00 +6°C° 0 mm 2 mps 731 mmHg 66%
    01:00 +6°C° 0 mm 2 mps 730 mmHg 66%
    02:00 +5°C° 0 mm 2 mps 730 mmHg 65%
    03:00 +4°C° 0 mm 3 mps 730 mmHg 68%
    04:00 +4°C° 0 mm 3 mps 730 mmHg 68%
    05:00 +4°C° 0 mm 3 mps 730 mmHg 68%
    06:00 +4°C° 0 mm 3 mps 730 mmHg 69%
    07:00 +5°C° 0 mm 3 mps 730 mmHg 68%
    08:00 +8°C° 0 mm 3 mps 730 mmHg 67%
    09:00 +9°C° 0 mm 3 mps 730 mmHg 67%
    10:00 +10°C° 0 mm 3 mps 730 mmHg 63%
    11:00 +12°C° 0 mm 3 mps 729 mmHg 59%
    12:00 +13°C° 0 mm 3 mps 729 mmHg 56%
    13:00 +14°C° 0 mm 3 mps 728 mmHg 55%
    14:00 +14°C° 0 mm 3 mps 728 mmHg 55%
    15:00 +14°C° 0 mm 3 mps 728 mmHg 54%
    16:00 +13°C° 0 mm 2 mps 728 mmHg 57%
    17:00 +10°C° 0 mm 2 mps 728 mmHg 61%
    18:00 +8°C° 0 mm 2 mps 728 mmHg 64%
    19:00 +8°C° 0 mm 2 mps 728 mmHg 64%
    20:00 +8°C° 0 mm 3 mps 728 mmHg 63%
    21:00 +7°C° 0 mm 3 mps 728 mmHg 62%
    22:00 +7°C° 0 mm 3 mps 728 mmHg 61%
    23:00 +7°C° 0 mm 3 mps 728 mmHg 60%

    Tomorrow, 26 February, Sunday

    Time Temperature Precipitation Wind Pressure Humidity
    00:00 +5°C° 0 mm 4 mps 727 mmHg 59%
    01:00 +5°C° 0 mm 4 mps 727 mmHg 59%
    02:00 +5°C° 0 mm 4 mps 727 mmHg 59%
    03:00 +5°C° 0 mm 4 mps 727 mmHg 60%
    04:00 +5°C° 0 mm 4 mps 726 mmHg 61%
    05:00 +4°C° 0 mm 4 mps 726 mmHg 62%
    06:00 +4°C° 0 mm 4 mps 726 mmHg 62%
    07:00 +6°C° 0 mm 4 mps 726 mmHg 59%
    08:00 +8°C° 0 mm 4 mps 726 mmHg 56%
    09:00 +10°C° 0 mm 4 mps 726 mmHg 53%
    10:00 +10°C° 0 mm 5 mps 726 mmHg 51%
    11:00 +13°C° 0 mm 5 mps 726 mmHg 49%
    12:00 +14°C° 0 mm 5 mps 725 mmHg 47%
    13:00 +14°C° 0 mm 5 mps 725 mmHg 48%
    14:00 +14°C° 0 mm 5 mps 725 mmHg 49%
    15:00 +14°C° 0 mm 5 mps 725 mmHg 50%
    16:00 +12°C° 0 mm 4 mps 726 mmHg 55%
    17:00 +10°C° 0 mm 3 mps 726 mmHg 60%
    18:00 +8°C° 0 mm 2 mps 727 mmHg 65%
    19:00 +8°C° 0 mm 2 mps 728 mmHg 66%
    20:00 +7°C° 0 mm 2 mps 729 mmHg 68%
    21:00 +7°C° 0 mm 2 mps 730 mmHg 70%
    22:00 +6°C° 0 mm 2 mps 730 mmHg 73%
    23:00 +4°C° 0 mm 3 mps 730 mmHg 77%

    Day after tomorrow, 27 February, Monday

    Time Temperature Precipitation Wind Pressure Humidity
    00:00 +4°C° 0 mm 3 mps 731 mmHg 80%
    01:00 +3°C° 0 mm 4 mps 731 mmHg 81%
    02:00 +3°C° 0 mm 4 mps 731 mmHg 81%
    03:00 +1°C° 0 mm 4 mps 731 mmHg 82%
    04:00 +2°C° 0 mm 3 mps 731 mmHg 82%
    05:00 +2°C° 0 mm 3 mps 731 mmHg 83%
    06:00 +3°C° 0 mm 2 mps 731 mmHg 83%
    07:00 +3°C° 0 mm 2 mps 731 mmHg 79%
    08:00 +4°C° 0 mm 2 mps 731 mmHg 75%
    09:00 +5°C° 0 mm 2 mps 732 mmHg 71%
    10:00 +6°C° 0 mm 2 mps 731 mmHg 68%
    11:00 +7°C° 0 mm 2 mps 731 mmHg 65%
    12:00 +8°C° 0 mm 2 mps 730 mmHg 62%
    13:00 +8°C° 0 mm 2 mps 729 mmHg 62%
    14:00 +8°C° 0 mm 2 mps 729 mmHg 62%
    15:00 +10°C° 0 mm 1 mps 728 mmHg 61%
    16:00 +9°C° 0 mm 1 mps 728 mmHg 66%
    17:00 +7°C° 0 mm 1 mps 728 mmHg 71%
    18:00 +5°C° 0 mm 0 mps 728 mmHg 75%
    19:00 +5°C° 0 mm 0 mps 728 mmHg 76%
    20:00 +5°C° 0 mm 1 mps 729 mmHg 77%
    21:00 +5°C° 0 mm 1 mps 729 mmHg 78%
    22:00 +4°C° 0 mm 0 mps 729 mmHg 79%
    23:00 +3°C° 0 mm 0 mps 729 mmHg 81%

    28 February, Tuesday

    Time Temperature Precipitation Wind Pressure Humidity
    00:00 +3°C° 0 mm 0 mps 729 mmHg 82%
    01:00 +4°C° 0 mm 1 mps 729 mmHg 82%
    02:00 +4°C° 0 mm 1 mps 729 mmHg 81%
    03:00 +4°C° 0 mm 1 mps 728 mmHg 81%
    04:00 +4°C° 0 mm 1 mps 729 mmHg 81%
    05:00 +4°C° 0 mm 1 mps 729 mmHg 81%
    06:00 +3°C° 0 mm 1 mps 729 mmHg 81%
    07:00 +5°C° 0 mm 1 mps 729 mmHg 74%
    08:00 +7°C° 0 mm 1 mps 730 mmHg 67%
    09:00 +8°C° 0 mm 0 mps 730 mmHg 61%
    10:00 +11°C° 0 mm 1 mps 730 mmHg 58%
    11:00 +12°C° 0 mm 1 mps 730 mmHg 55%
    12:00 +13°C° 0 mm 1 mps 730 mmHg 52%
    13:00 +13°C° 0 mm 1 mps 729 mmHg 52%
    14:00 +14°C° 0 mm 1 mps 729 mmHg 52%
    15:00 +14°C° 0 mm 2 mps 729 mmHg 52%
    16:00 +12°C° 0 mm 2 mps 729 mmHg 58%
    17:00 +9°C° 0 mm 2 mps 729 mmHg 64%
    18:00 +8°C° 0 mm 2 mps 729 mmHg 70%
    19:00 +7°C° 0 mm 2 mps 730 mmHg 72%
    20:00 +8°C° 0 mm 1 mps 730 mmHg 74%
    21:00 +7°C° 0 mm 1 mps 730 mmHg 76%
    22:00 +7°C° 0 mm 1 mps 730 mmHg 77%
    23:00 +7°C° 0 mm 1 mps 731 mmHg 79%

    1 March, Wednesday

    Time Temperature Precipitation Wind Pressure Humidity
    00:00 +6°C° 0 mm 1 mps 731 mmHg 80%
    01:00 +6°C° 0 mm 1 mps 730 mmHg 82%
    02:00 +4°C° 0 mm 0 mps 730 mmHg 83%
    03:00 +4°C° 0 mm 0 mps 730 mmHg 85%
    04:00 +4°C° 0 mm 0 mps 730 mmHg 85%
    05:00 +4°C° 0 mm 0 mps 730 mmHg 85%
    06:00 +3°C° 0 mm 0 mps 730 mmHg 85%
    07:00 +5°C° 0 mm 0 mps 730 mmHg 77%
    08:00 +7°C° 0 mm 0 mps 731 mmHg 69%
    09:00 +9°C° 0 mm 0 mps 731 mmHg 61%
    10:00 +10°C° 0 mm 0 mps 730 mmHg 58%
    11:00 +13°C° 0 mm 1 mps 729 mmHg 54%
    12:00 +14°C° 0 mm 1 mps 729 mmHg 51%
    13:00 +14°C° 0 mm 1 mps 728 mmHg 51%
    14:00 +14°C° 0 mm 1 mps 728 mmHg 51%
    15:00 +15°C° 0 mm 1 mps 727 mmHg 51%
    16:00 +13°C° 0 mm 1 mps 727 mmHg 58%
    17:00 +11°C° 0 mm 1 mps 727 mmHg 64%
    18:00 +9°C° 0 mm 1 mps 727 mmHg 71%
    19:00 +9°C° 0 mm 1 mps 727 mmHg 73%
    20:00 +9°C° 0 mm 1 mps 727 mmHg 75%
    21:00 +8°C° 0 mm 1 mps 728 mmHg 77%
    22:00 +8°C° 0 mm 1 mps 727 mmHg 79%
    23:00 +7°C° 0 mm 1 mps 727 mmHg 80%

    2 March, Thursday

    Time Temperature Precipitation Wind Pressure Humidity
    00:00 +7°C° 0 mm 1 mps 727 mmHg 82%
    01:00 +7°C° 0 mm 1 mps 726 mmHg 83%
    02:00 +5°C° 0 mm 0 mps 726 mmHg 84%
    03:00 +5°C° 0 mm 0 mps 726 mmHg 84%
    04:00 +5°C° 0 mm 0 mps 725 mmHg 84%
    05:00 +4°C° 0 mm 0 mps 725 mmHg 84%
    06:00 +4°C° 0 mm 0 mps 725 mmHg 83%
    07:00 +6°C° 0 mm 0 mps 725 mmHg 76%
    08:00 +8°C° 0 mm 0 mps 725 mmHg 68%
    09:00 +10°C° 0 mm 0 mps 725 mmHg 61%
    10:00 +12°C° 0 mm 1 mps 724 mmHg 56%
    11:00 +14°C° 0 mm 1 mps 723 mmHg 52%
    12:00 +15°C° 0 mm 1 mps 723 mmHg 48%
    13:00 +15°C° 0 mm 1 mps 722 mmHg 48%
    14:00 +15°C° 0 mm 1 mps 722 mmHg 48%
    15:00 +16°C° 0 mm 1 mps 721 mmHg 48%
    16:00 +14°C° 0 mm 1 mps 722 mmHg 53%
    17:00 +13°C° 0 mm 1 mps 722 mmHg 59%
    18:00 +11°C° 0 mm 1 mps 722 mmHg 65%
    19:00 +11°C° 0.1 mm 1 mps 722 mmHg 66%
    20:00 +11°C° 0.1 mm 1 mps 722 mmHg 68%
    21:00 +10°C° 0.1 mm 1 mps 722 mmHg 69%
    22:00 +9°C° 0.2 mm 0 mps 722 mmHg 71%
    23:00 +9°C° 0.2 mm 0 mps 722 mmHg 72%
    Show more